Location: Lansingburgh
(42.7845°N, 73.6696°W)
Time: 21:40:50
(UTC+00:00)

USA 234 - Pass Details

Date: 24 January 2020
Orbit: 1100 x 1107 km, 123.0° (Epoch: 19 February)

Event Time Altitude Azimuth Distance (km) Brightness Sun altitude
Rises 22:38:26 0° 129° (SE) 3,905 5.8 -7.9°
Reaches altitude 10° 22:40:54 10° 129° (SE) 2,950 5.2 -8.3°
Maximum altitude 22:47:26 89° 45° (NE) 1,106 3.3 -9.5°
Drops below altitude 10° 22:54:00 10° 312° (NW) 2,965 6.0 -10.6°
Sets 22:56:29 0° 312° (NW) 3,927 6.6 -11.1°
